Location: Beuvrequen
(50.8014°N, 1.6652°E)
Time: 13:06:40
(UTC+00:00)

Cosmos 1844 - Pass Details

Date: 04 June 2022
Orbit: 821 x 869 km, 70.9° (Epoch: 03 July)

Event Time Altitude Azimuth Distance (km) Brightness Sun altitude
Rises 22:18:25 0° 320° (NW) 3,466 8.4 -13.8°
Reaches altitude 10° 22:21:38 10° 302° (WNW) 2,522 7.0 -14.0°
Maximum altitude 22:25:26 18° 261° (W) 1,984 5.8 -14.2°
Drops below altitude 10° 22:29:14 10° 220° (SW) 2,501 5.9 -14.5°
Enters shadow 22:30:29 - 211° (SSW) 2,834 6.1 -14.5°
